Location: Dayton
(39.7590°N, 84.1920°W)
Time: 10:09:36
(UTC-04:00)

Daily predictions for brighter satellites

Satellite Brightness Start Highest point End
(mag) Time Altitude Azimuth Time Altitude Azimuth Time Altitude Azimuth
DELTA 2 R/B (1) 3.8 19:08:44 10° W 19:14:18 74° SSW 19:19:53 10° ESE
Meteor 1-28 Rocket 3.1 19:13:59 10° NNE 19:17:47 79° ESE 19:21:32 10° S
METEOR-M 4.4 19:12:49 10° SE 19:17:53 46° ENE 19:22:58 10° N
Cosmos 1420 Rocket 4.4 19:13:13 10° N 19:18:18 44° ENE 19:23:19 10° SE
CZ-4C R/B 2.6 19:17:32 10° S 19:22:12 38° ESE 19:27:25 10° NE
Cosmos 1484 Rocket 3.2 19:18:48 10° S 19:22:29 63° W 19:26:11 10° NNW
Cosmos 44 Rocket 3.5 19:19:48 10° S 19:24:19 48° ESE 19:28:50 10° NE
SL-16 R/B 4.1 19:21:53 10° NW 19:27:01 36° WSW 19:32:07 10° S
Cosmos 1703 3.2 19:27:02 10° N 19:30:58 90° WNW 19:34:51 10° S
Thor Agena Rocket 4.5 19:31:02 10° NE 19:35:12 25° E 19:39:19 10° SSE
Cosmos 2366 rocket 4.5 19:29:34 10° SSW 19:35:44 66° W 19:41:53 10° N
Sich 1 4.3 19:32:31 10° NNE 19:35:45 20° ENE 19:38:58 10° ESE
Cosmos 1908 3.2 19:32:06 10° S 19:35:57 63° E 19:39:49 10° NNE
RESURS DK-1 2.8 19:32:59 10° NNW 19:37:06 67° WSW 19:41:11 10° SSE
COSMO-SKYMED 1 2.5 19:33:28 10° NNE 19:37:50 69° ESE 19:42:07 10° S
Cosmos 2237 4.2 19:32:39 10° NNW 19:38:24 73° ENE 19:44:05 10° SSE
Cosmos 1626 3.2 19:35:06 10° NNW 19:38:44 50° W 19:42:20 10° S
Cosmos 2237 Rocket 3.6 19:38:56 10° N 19:43:00 20° NE 19:45:24 15° E
Atlas Centaur 2 3.7 19:40:11 10° WSW 19:43:23 20° S 19:47:06 10° SE
H-2A R/B 4.1 19:43:54 14° ESE 19:45:55 21° ENE 19:48:54 10° NNE
Gbstr 26 Del rocket 3.9 19:41:10 10° NW 19:45:58 49° NNE 19:50:40 16° ESE
Cosmos 2151 3.7 19:45:18 10° NNW 19:49:29 56° W 19:53:38 10° S
Cosmos 1805 Rocket 3.9 19:45:32 10° N 19:49:42 41° ENE 19:53:52 10° SSE
Cosmos 2227 Rocket 3.4 19:46:00 10° SSE 19:50:04 21° E 19:52:07 17° ENE
SL-16 R/B 4.1 19:53:08 10° NNE 19:54:29 11° NE 19:54:46 11° NE
Cosmos 2058 4.1 19:52:21 10° NNW 19:56:22 46° W 20:00:19 10° SSW
YAOGAN 1 3.8 19:54:40 10° S 19:58:49 46° W 20:03:00 10° NNW
Cosmos 1666 Rocket 4.2 19:55:00 10° NNE 19:58:54 32° ENE 20:02:43 10° SE
ALOS 2.2 19:57:26 10° SSE 20:02:04 71° ENE 20:06:44 10° N
Cosmos 1300 3.1 19:59:16 10° SSE 20:02:48 37° E 20:06:22 10° NNE
Cosmos 1269 Rocket 3.9 19:58:39 10° SSW 20:03:55 82° ESE 20:09:13 10° NNE
Cosmos 2360 Rocket 3.4 19:58:56 10° NW 20:04:17 44° WSW 20:09:37 10° S
Cosmos 1633 Rocket 3.8 20:00:33 10° NNE 20:04:31 31° ENE 20:06:13 24° ESE
DMSP B5D1-3 4.4 20:00:39 10° NNE 20:05:49 80° ESE 20:10:58 10° S
Cosmos 1980 4.5 20:02:29 10° N 20:07:28 31° ENE 20:09:17 26° E
Cosmos 1000 Rocket 4.4 20:05:10 10° N 20:11:26 84° E 20:17:35 10° S
Cosmos 1821 Rocket 3.9 20:05:33 10° S 20:11:41 79° E 20:17:57 10° N
Cosmos 1934 Rocket 4.0 20:05:33 10° S 20:11:46 59° E 20:18:00 10° NNE
SPOT 3 Rocket 4.0 20:07:34 10° S 20:12:43 66° WSW 20:17:55 10° NNW
Aureole 2 Rocket 2.7 20:10:13 10° NNW 20:14:08 62° ENE 20:16:42 21° SE
COSMOS 2428 2.7 20:09:21 10° NNW 20:15:04 85° WSW 20:20:45 10° SSE
Abrixas 3.1 20:13:35 10° W 20:15:20 35° NW 20:15:20 35° NW
Cosmos 2239 Rocket 4.4 20:11:34 10° S 20:17:41 87° E 20:23:52 10° N
Cosmos 2333 Rocket 2.3 20:12:26 10° NNW 20:18:04 54° ENE 20:21:36 22° SE
Cosmos 2219 3.3 20:13:23 10° SSW 20:19:08 79° WNW 20:24:54 10° NNE
Hubble Space Telescope 3.1 20:17:44 10° S 20:19:16 12° SSE 20:19:41 12° SSE
FENGYUN 3A 3.7 20:14:25 10° SSE 20:19:49 83° WSW 20:25:16 10° NNW
BREEZE-M DEB (TANK) 4.0 20:04:45 10° WNW 20:23:45 59° NNE 20:26:19 33° E
Cosmos 2221 3.8 20:20:44 10° SSW 20:24:50 42° WNW 20:29:00 10° N
Iridium 4 Rocket 4.0 20:19:33 10° S 20:25:07 70° W 20:31:00 10° N
BREEZE-M R/B 2.7 20:22:58 10° SW 20:25:04 45° S 20:25:04 45° S
Delta 2 Rocket 4.0 20:22:17 10° W 20:25:47 35° SSW 20:26:27 32° SSE
Cosmos 2297 Rocket 2.7 20:22:11 10° SSE 20:27:02 35° ESE 20:27:02 35° ESE
Cosmos 494 Rocket 4.0 20:23:15 10° S 20:28:12 53° ESE 20:30:46 27° NE
Cosmos 2098 Rocket 3.8 20:23:45 10° SSW 20:28:15 67° W 20:34:04 10° N
Cosmos 2084 3.4 20:28:16 10° NNW 20:31:39 51° NNE 20:31:39 51° NNE
Cosmos 1110 Rocket 3.9 20:29:31 10° NNW 20:34:48 63° ENE 20:36:35 40° SE
Meteor 2-10 3.8 20:30:32 10° S 20:35:33 87° E 20:40:43 10° N
Abrixas rocket 4.2 20:33:46 10° NW 20:35:41 20° N 20:35:41 20° N
Cosmos 2082 4.1 20:31:19 10° S 20:36:17 41° ESE 20:36:17 41° ESE
Meteor 2-2 Rocket 4.1 20:31:37 10° S 20:37:15 66° E 20:42:51 10° NNE
BREEZE-M DEB (TANK) 3.5 20:31:08 10° WNW 20:39:56 45° N 20:41:01 38° NE
Cosmos 1726 3.5 20:37:04 10° SSW 20:40:32 39° W 20:44:02 10° N
FengYun 1-2 T 4.1 20:37:13 10° SSE 20:42:43 88° WSW 20:48:14 10° NNW
Cosmos 2123 Rocket 3.9 20:36:51 10° N 20:43:09 84° E 20:49:26 10° S
Cosmos 1605 Rocket 3.8 20:40:03 10° S 20:46:08 75° E 20:52:13 10° N
Cosmos 1153 Rocket 4.5 20:44:18 10° SSE 20:50:13 53° E 20:56:14 10° NNE
Cosmos 2219 Rocket 2.4 20:46:08 10° NNW 20:51:42 68° WSW 20:55:32 21° S
Cosmos 2251 Rocket 3.5 20:51:59 10° S 20:56:38 65° SSE 20:56:38 65° SSE
Envisat 4.3 21:01:48 28° NNE 21:01:48 28° NNE 21:04:18 10° N
SJ-6B 4.3 21:06:29 30° NW 21:06:29 30° NW 21:08:36 10° NNW
Resurs 01 Rocket 3.8 21:11:19 17° N 21:11:19 17° N 21:12:24 10° N
NOSS 0 Rocket 4.1 21:03:17 10° NNW 21:09:25 69° WSW 21:11:40 40° S
MOS 1-B Rocket 3.7 21:09:36 75° SSE 21:10:08 86° ENE 21:16:17 10° NNW
CZ-4C R/B 3.7 21:05:57 10° WSW 21:10:42 33° NW 21:15:05 14° NNE
Cosmos 1447 Rocket 4.4 21:14:56 10° N 21:21:17 89° WNW 21:21:17 89° WNW
BREEZE M DEB (TANK) 4.1 21:10:38 10° WNW 21:23:10 68° N 21:23:10 68° N
Cosmos 2237 Rocket 2.5 21:21:54 10° NNW 21:27:17 64° W 21:27:17 64° W
USA 267 3.3 21:32:24 68° SSW 21:32:24 68° SSW 21:38:02 10° SW
Cosmos 2227 Rocket 2.8 21:28:08 10° SW 21:33:38 53° WNW 21:34:03 52° NW
SL-16 R/B 3.7 21:34:04 10° NNW 21:36:39 28° N 21:36:39 28° N
CZ-3A R/B 4.0 21:42:17 10° NW 21:56:32 64° NNE 21:56:32 64° NNE
Cosmos 2333 Rocket 4.4 21:57:42 10° NW 22:01:52 21° W 22:03:41 18° SW
Centaur D AC-28 4.4 22:00:57 10° SW 22:42:12 11° E 22:46:02 10° E
Centaur D AC-28 4.4 22:00:58 10° SW 22:42:11 11° E 22:46:02 10° E
Centaur D AC-28 4.4 22:00:57 10° SW 22:42:11 11° E 22:46:02 10° E
Centaur D AC-28 4.4 22:00:58 10° SW 22:42:11 11° E 22:46:03 10° E
Centaur D AC-28 4.4 22:00:58 10° SW 22:42:10 11° E 22:46:03 10° E
Centaur D AC-28 4.4 22:00:58 10° SW 22:42:12 11° E 22:46:03 10° E
Centaur D AC-28 4.4 22:00:58 10° SW 22:42:13 11° E 22:46:02 10° E
Centaur D AC-28 4.4 22:00:58 10° SW 22:42:12 11° E 22:46:02 10° E
Cosmos 2297 Rocket 4.1 22:06:14 10° WSW 22:08:59 24° W 22:08:59 24° W
